Location: Ripley
(48.3812°N, 115.4473°W)
Time: 16:55:20
(UTC+00:00)

O/OREOS (USA 219) - Pass Details

Date: 06 July 2022
Orbit: 621 x 646 km, 72.0° (Epoch: 22 May)

Event Time Altitude Azimuth Distance (km) Brightness Sun altitude
Rises 07:22:51 0° 329° (NNW) 2,967 ? -18.7°
Reaches altitude 10° 07:25:11 10° 324° (NW) 2,054 ? -18.8°
Maximum altitude 07:29:38 49° 250° (WSW) 833 ? -18.8°
Enters shadow 07:30:55 38° 204° (SSW) 994 ? -18.9°
